Location: Bittelbronn
(48.4454°N, 8.5870°E)
Time: 01:10:24
(UTC+00:00)

Meteor 2-5 Rocket - Pass Details

Date: 10 August 2024
Orbit: 833 x 910 km, 81.2° (Epoch: 07 September)

Event Time Altitude Azimuth Distance (km) Brightness Sun altitude
Rises 00:38:29 0° 359° (N) 3,449 8.1 -24.3°
Reaches altitude 10° 00:42:06 10° 23° (NNE) 2,524 7.3 -24.2°
Maximum altitude 00:45:18 15° 57° (ENE) 2,195 6.5 -24.0°
Drops below altitude 10° 00:48:31 10° 91° (E) 2,546 6.4 -23.8°
Sets 00:52:10 0° 114° (ESE) 3,497 6.9 -23.6°
